Time,TemperatureF,DewpointF,PressureIn,WindDirection,WindDirectionDegrees,WindSpeedMPH,WindSpeedGustMPH,Humidity,HourlyPrecipIn,Conditions,Clouds,dailyrainin,SoftwareType,DateUTC
2013-01-25 00:11:00,58.8,54.3,30.10,North,0,0.0,-999.0,85,-99.99,,,0.00,Acu-Link.com,2013-01-25 05:11:00,
2013-01-25 00:26:00,58.5,54.0,30.10,North,0,0.0,-999.0,85,-99.99,,,0.00,Acu-Link.com,2013-01-25 05:26:00,
2013-01-25 00:41:00,58.3,53.8,30.10,North,0,0.0,-999.0,85,-99.99,,,0.00,Acu-Link.com,2013-01-25 05:41:00,
2013-01-25 00:56:00,57.7,53.9,30.10,North,0,0.0,-999.0,87,-99.99,,,0.00,Acu-Link.com,2013-01-25 05:56:00,
2013-01-25 01:12:00,57.6,54.4,30.10,North,0,0.0,-999.0,89,-99.99,,,0.00,Acu-Link.com,2013-01-25 06:12:00,
2013-01-25 01:27:00,57.2,54.3,30.10,North,0,0.0,-999.0,90,-99.99,,,0.00,Acu-Link.com,2013-01-25 06:27:00,
2013-01-25 01:42:00,57.6,54.1,30.10,North,0,2.2,-999.0,88,-99.99,,,0.00,Acu-Link.com,2013-01-25 06:42:00,
2013-01-25 01:57:00,57.7,53.9,30.10,North,0,2.7,-999.0,87,-99.99,,,0.00,Acu-Link.com,2013-01-25 06:57:00,
2013-01-25 02:12:00,57.7,53.5,30.09,North,0,3.2,-999.0,86,-99.99,,,0.00,Acu-Link.com,2013-01-25 07:12:00,
2013-01-25 02:28:00,57.7,53.2,30.09,North,0,2.2,-999.0,85,-99.99,,,0.00,Acu-Link.com,2013-01-25 07:28:00,
2013-01-25 02:44:00,58.3,52.8,30.09,North,0,0.0,-999.0,82,-99.99,,,0.00,Acu-Link.com,2013-01-25 07:44:00,
2013-01-25 03:04:00,58.6,52.4,30.09,North,0,2.7,-999.0,80,-99.99,,,0.00,Acu-Link.com,2013-01-25 08:04:00,
2013-01-25 03:19:00,58.8,52.0,30.09,NW,315,2.2,-999.0,78,-99.99,,,0.00,Acu-Link.com,2013-01-25 08:19:00,
2013-01-25 03:34:00,58.6,51.8,30.09,NW,315,3.2,-999.0,78,-99.99,,,0.00,Acu-Link.com,2013-01-25 08:34:00,
2013-01-25 03:49:00,58.3,51.8,30.09,NW,315,2.7,-999.0,79,-99.99,,,0.00,Acu-Link.com,2013-01-25 08:49:00,
2013-01-25 04:16:00,58.3,51.8,30.09,NW,315,0.0,-999.0,79,-99.99,,,0.00,Acu-Link.com,2013-01-25 09:16:00,
2013-01-25 04:31:00,58.1,51.6,30.08,NW,315,2.2,-999.0,79,-99.99,,,0.00,Acu-Link.com,2013-01-25 09:31:00,
2013-01-25 05:01:00,57.6,51.1,30.07,NW,315,2.2,-999.0,79,-99.99,,,0.00,Acu-Link.com,2013-01-25 10:01:00,
2013-01-25 05:16:00,58.3,50.8,30.07,NW,315,2.7,-999.0,76,-99.99,,,0.00,Acu-Link.com,2013-01-25 10:16:00,
2013-01-25 05:32:00,58.3,50.8,30.07,NW,315,2.2,-999.0,76,-99.99,,,0.00,Acu-Link.com,2013-01-25 10:32:00,
2013-01-25 05:47:00,58.1,50.9,30.08,NNW,337,3.2,-999.0,77,-99.99,,,0.00,Acu-Link.com,2013-01-25 10:47:00,
2013-01-25 06:02:00,57.7,50.9,30.09,NNW,337,2.2,-999.0,78,-99.99,,,0.00,Acu-Link.com,2013-01-25 11:02:00,
2013-01-25 06:17:00,58.3,50.8,30.10,NNW,337,1.7,-999.0,76,-99.99,,,0.00,Acu-Link.com,2013-01-25 11:17:00,
2013-01-25 06:32:00,58.5,51.0,30.10,NE,45,4.2,-999.0,76,-99.99,,,0.00,Acu-Link.com,2013-01-25 11:32:00,
2013-01-25 06:47:00,58.6,50.7,30.10,NNW,337,2.2,-999.0,75,-99.99,,,0.00,Acu-Link.com,2013-01-25 11:47:00,
2013-01-25 07:02:00,58.1,50.6,30.10,NE,45,3.2,-999.0,76,-99.99,,,0.00,Acu-Link.com,2013-01-25 12:02:00,
2013-01-25 07:17:00,57.9,50.7,30.11,NNW,337,2.7,-999.0,77,-99.99,,,0.00,Acu-Link.com,2013-01-25 12:17:00,
2013-01-25 07:32:00,57.7,50.9,30.11,NNW,337,1.7,-999.0,78,-99.99,,,0.00,Acu-Link.com,2013-01-25 12:32:00,
2013-01-25 07:48:00,58.3,51.1,30.12,NNW,337,0.0,-999.0,77,-99.99,,,0.00,Acu-Link.com,2013-01-25 12:48:00,
2013-01-25 08:03:00,59.7,51.4,30.11,NNW,337,2.7,-999.0,74,-99.99,,,0.00,Acu-Link.com,2013-01-25 13:03:00,
2013-01-25 08:18:00,60.8,51.3,30.12,NNW,337,3.2,-999.0,71,-99.99,,,0.00,Acu-Link.com,2013-01-25 13:18:00,
2013-01-25 08:33:00,61.9,51.6,30.12,NNW,337,2.7,-999.0,69,-99.99,,,0.00,Acu-Link.com,2013-01-25 13:33:00,
2013-01-25 08:48:00,63.3,52.2,30.12,NE,45,4.2,-999.0,67,-99.99,,,0.00,Acu-Link.com,2013-01-25 13:48:00,
2013-01-25 09:03:00,64.6,52.1,30.14,ENE,67,6.8,-999.0,64,-99.99,,,0.00,Acu-Link.com,2013-01-25 14:03:00,
2013-01-25 09:18:00,65.1,52.2,30.14,NNE,22,4.2,-999.0,63,-99.99,,,0.00,Acu-Link.com,2013-01-25 14:18:00,
2013-01-25 09:33:00,66.9,51.2,30.14,ESE,112,4.7,-999.0,57,-99.99,,,0.00,Acu-Link.com,2013-01-25 14:33:00,
2013-01-25 09:48:00,68.0,51.2,30.15,NE,45,6.3,-999.0,55,-99.99,,,0.00,Acu-Link.com,2013-01-25 14:48:00,
2013-01-25 10:04:00,69.1,51.2,30.15,West,270,2.7,-999.0,53,-99.99,,,0.00,Acu-Link.com,2013-01-25 15:04:00,
2013-01-25 10:19:00,70.2,51.7,30.14,North,0,5.8,-999.0,52,-99.99,,,0.00,Acu-Link.com,2013-01-25 15:19:00,
2013-01-25 10:34:00,70.7,52.7,30.14,West,270,4.2,-999.0,53,-99.99,,,0.00,Acu-Link.com,2013-01-25 15:34:00,
2013-01-25 10:49:00,72.1,53.5,30.14,NNE,22,4.7,-999.0,52,-99.99,,,0.00,Acu-Link.com,2013-01-25 15:49:00,
2013-01-25 11:04:00,72.5,53.3,30.14,NNE,22,4.7,-999.0,51,-99.99,,,0.00,Acu-Link.com,2013-01-25 16:04:00,
2013-01-25 11:19:00,72.7,54.0,30.13,NE,45,7.3,-999.0,52,-99.99,,,0.00,Acu-Link.com,2013-01-25 16:19:00,
2013-01-25 11:34:00,72.9,54.2,30.13,NE,45,4.7,-999.0,52,-99.99,,,0.00,Acu-Link.com,2013-01-25 16:34:00,
2013-01-25 11:49:00,73.6,55.4,30.11,East,90,5.3,-999.0,53,-99.99,,,0.00,Acu-Link.com,2013-01-25 16:49:00,
2013-01-25 12:05:00,73.8,56.1,30.11,NNW,337,4.7,-999.0,54,-99.99,,,0.00,Acu-Link.com,2013-01-25 17:05:00,
2013-01-25 12:20:00,74.1,56.4,30.11,ESE,112,4.7,-999.0,54,-99.99,,,0.00,Acu-Link.com,2013-01-25 17:20:00,
2013-01-25 12:35:00,75.0,57.7,30.10,East,90,4.7,-999.0,55,-99.99,,,0.00,Acu-Link.com,2013-01-25 17:35:00,
2013-01-25 12:50:00,74.8,57.5,30.08,ENE,67,5.3,-999.0,55,-99.99,,,0.00,Acu-Link.com,2013-01-25 17:50:00,
2013-01-25 13:05:00,73.9,57.2,30.08,East,90,5.8,-999.0,56,-99.99,,,0.00,Acu-Link.com,2013-01-25 18:05:00,
2013-01-25 13:20:00,75.0,57.7,30.07,ENE,67,8.9,-999.0,55,-99.99,,,0.00,Acu-Link.com,2013-01-25 18:20:00,
2013-01-25 13:35:00,75.0,58.2,30.06,East,90,4.2,-999.0,56,-99.99,,,0.00,Acu-Link.com,2013-01-25 18:35:00,
2013-01-25 13:50:00,75.2,58.4,30.06,East,90,4.2,-999.0,56,-99.99,,,0.00,Acu-Link.com,2013-01-25 18:50:00,
2013-01-25 14:05:00,76.6,57.6,30.06,NE,45,5.8,-999.0,52,-99.99,,,0.00,Acu-Link.com,2013-01-25 19:05:00,
2013-01-25 14:21:00,75.9,58.0,30.04,SSE,157,5.8,-999.0,54,-99.99,,,0.00,Acu-Link.com,2013-01-25 19:21:00,
2013-01-25 14:36:00,75.9,57.5,30.04,ESE,112,6.3,-999.0,53,-99.99,,,0.00,Acu-Link.com,2013-01-25 19:36:00,
2013-01-25 14:51:00,74.3,56.0,30.03,ESE,112,2.7,-999.0,53,-99.99,,,0.00,Acu-Link.com,2013-01-25 19:51:00,
2013-01-25 15:06:00,73.9,56.7,30.04,ESE,112,6.3,-999.0,55,-99.99,,,0.00,Acu-Link.com,2013-01-25 20:06:00,
2013-01-25 15:21:00,75.4,57.6,30.03,SE,135,4.7,-999.0,54,-99.99,,,0.00,Acu-Link.com,2013-01-25 20:21:00,
2013-01-25 15:36:00,75.0,56.7,30.04,SE,135,5.8,-999.0,53,-99.99,,,0.00,Acu-Link.com,2013-01-25 20:36:00,
2013-01-25 15:51:00,74.8,57.0,30.04,ESE,112,6.8,-999.0,54,-99.99,,,0.00,Acu-Link.com,2013-01-25 20:51:00,
2013-01-25 16:07:00,74.5,56.7,30.03,ESE,112,3.2,-999.0,54,-99.99,,,0.00,Acu-Link.com,2013-01-25 21:07:00,
2013-01-25 16:22:00,74.5,54.6,30.04,NE,45,6.8,-999.0,50,-99.99,,,0.00,Acu-Link.com,2013-01-25 21:22:00,
2013-01-25 16:37:00,74.3,55.0,30.04,ESE,112,4.7,-999.0,51,-99.99,,,0.00,Acu-Link.com,2013-01-25 21:37:00,
2013-01-25 16:52:00,74.5,55.7,30.04,SE,135,3.2,-999.0,52,-99.99,,,0.00,Acu-Link.com,2013-01-25 21:52:00,
2013-01-25 17:07:00,73.8,55.6,30.04,ESE,112,2.7,-999.0,53,-99.99,,,0.00,Acu-Link.com,2013-01-25 22:07:00,
2013-01-25 17:22:00,73.0,55.4,30.05,ESE,112,2.7,-999.0,54,-99.99,,,0.00,Acu-Link.com,2013-01-25 22:22:00,
2013-01-25 17:38:00,73.6,55.9,30.04,East,90,2.7,-999.0,54,-99.99,,,0.00,Acu-Link.com,2013-01-25 22:38:00,
2013-01-25 17:53:00,72.3,55.2,30.04,East,90,2.2,-999.0,55,-99.99,,,0.00,Acu-Link.com,2013-01-25 22:53:00,
2013-01-25 18:08:00,70.9,55.4,30.05,East,90,1.7,-999.0,58,-99.99,,,0.00,Acu-Link.com,2013-01-25 23:08:00,
2013-01-25 18:23:00,69.6,55.5,30.04,East,90,1.1,-999.0,61,-99.99,,,0.00,Acu-Link.com,2013-01-25 23:23:00,
2013-01-25 18:38:00,68.7,56.5,30.04,East,90,0.0,-999.0,65,-99.99,,,0.00,Acu-Link.com,2013-01-25 23:38:00,
2013-01-25 18:54:00,67.5,56.6,30.05,East,90,0.0,-999.0,68,-99.99,,,0.00,Acu-Link.com,2013-01-25 23:54:00,
2013-01-25 19:09:00,66.2,57.3,30.05,East,90,0.0,-999.0,73,-99.99,,,0.00,Acu-Link.com,2013-01-26 00:09:00,
2013-01-25 19:24:00,65.3,57.5,30.06,East,90,0.0,-999.0,76,-99.99,,,0.00,Acu-Link.com,2013-01-26 00:24:00,
2013-01-25 19:39:00,64.8,58.5,30.05,East,90,0.0,-999.0,80,-99.99,,,0.00,Acu-Link.com,2013-01-26 00:39:00,
2013-01-25 19:54:00,64.0,59.1,30.06,East,90,0.0,-999.0,84,-99.99,,,0.00,Acu-Link.com,2013-01-26 00:54:00,
2013-01-25 20:10:00,63.9,59.3,30.06,East,90,0.0,-999.0,85,-99.99,,,0.00,Acu-Link.com,2013-01-26 01:10:00,
2013-01-25 20:25:00,64.0,59.7,30.06,East,90,0.0,-999.0,86,-99.99,,,0.00,Acu-Link.com,2013-01-26 01:25:00,
2013-01-25 20:40:00,64.0,59.1,30.07,East,90,0.0,-999.0,84,-99.99,,,0.00,Acu-Link.com,2013-01-26 01:40:00,
2013-01-25 20:56:00,64.0,59.4,30.07,East,90,1.1,-999.0,85,-99.99,,,0.00,Acu-Link.com,2013-01-26 01:56:00,
2013-01-25 21:11:00,64.0,59.1,30.06,East,90,0.0,-999.0,84,-99.99,,,0.00,Acu-Link.com,2013-01-26 02:11:00,
2013-01-25 21:26:00,63.7,59.4,30.06,East,90,0.0,-999.0,86,-99.99,,,0.00,Acu-Link.com,2013-01-26 02:26:00,
2013-01-25 21:41:00,63.5,59.2,30.06,East,90,0.0,-999.0,86,-99.99,,,0.00,Acu-Link.com,2013-01-26 02:41:00,
2013-01-25 21:56:00,63.1,59.2,30.06,East,90,0.0,-999.0,87,-99.99,,,0.00,Acu-Link.com,2013-01-26 02:56:00,
2013-01-25 22:11:00,62.4,58.8,30.06,East,90,0.0,-999.0,88,-99.99,,,0.00,Acu-Link.com,2013-01-26 03:11:00,
2013-01-25 22:26:00,62.4,59.4,30.06,East,90,0.0,-999.0,90,-99.99,,,0.00,Acu-Link.com,2013-01-26 03:26:00,
2013-01-25 22:41:00,63.0,59.7,30.06,East,90,0.0,-999.0,89,-99.99,,,0.00,Acu-Link.com,2013-01-26 03:41:00,
2013-01-25 22:56:00,63.0,59.7,30.07,East,90,0.0,-999.0,89,-99.99,,,0.00,Acu-Link.com,2013-01-26 03:56:00,
2013-01-25 23:12:00,63.1,59.8,30.06,East,90,1.7,-999.0,89,-99.99,,,0.00,Acu-Link.com,2013-01-26 04:12:00,
2013-01-25 23:27:00,63.3,59.4,30.06,East,90,0.0,-999.0,87,-99.99,,,0.00,Acu-Link.com,2013-01-26 04:27:00,
2013-01-25 23:42:00,63.5,59.6,30.07,East,90,0.0,-999.0,87,-99.99,,,0.00,Acu-Link.com,2013-01-26 04:42:00,
2013-01-25 23:57:00,63.3,60.0,30.06,East,90,0.0,-999.0,89,-99.99,,,0.00,Acu-Link.com,2013-01-26 04:57:00,